Time,TemperatureF,DewpointF,PressureIn,WindDirection,WindDirectionDegrees,WindSpeedMPH,WindSpeedGustMPH,Humidity,HourlyPrecipIn,Conditions,Clouds,dailyrainin,SolarRadiationWatts/m^2,SoftwareType,DateUTC
2013-07-13 00:02:00,73.1,61.9,29.97,ENE,71,1.0,1.0,68,0.00,,,0.00,0.00,VWS V14.01,2013-07-13 05:02:00,
2013-07-13 00:07:00,73.0,61.8,29.97,ENE,77,1.0,3.0,68,0.00,,,0.00,0.00,VWS V14.01,2013-07-13 05:07:00,
2013-07-13 00:12:00,72.8,61.6,29.97,ENE,76,0.0,2.0,68,0.00,,,0.00,0.00,VWS V14.01,2013-07-13 05:12:00,
2013-07-13 00:17:00,72.6,61.9,29.96,ENE,76,0.0,2.0,69,0.00,,,0.00,0.00,VWS V14.01,2013-07-13 05:17:00,
2013-07-13 00:22:00,72.3,61.6,29.97,ENE,76,0.0,3.0,69,0.00,,,0.00,0.00,VWS V14.01,2013-07-13 05:22:00,
2013-07-13 00:27:00,72.1,61.4,29.97,ENE,76,0.0,3.0,69,0.00,,,0.00,0.00,VWS V14.01,2013-07-13 05:27:00,
2013-07-13 00:32:00,71.9,61.2,29.97,ENE,76,0.0,1.0,69,0.00,,,0.00,0.00,VWS V14.01,2013-07-13 05:32:00,
2013-07-13 00:37:00,71.8,61.1,29.97,ENE,78,0.0,4.0,69,0.00,,,0.00,0.00,VWS V14.01,2013-07-13 05:37:00,
2013-07-13 00:42:00,71.8,61.1,29.97,ENE,78,0.0,1.0,69,0.00,,,0.00,0.00,VWS V14.01,2013-07-13 05:42:00,
2013-07-13 00:47:00,71.7,61.0,29.97,ENE,78,0.0,2.0,69,0.00,,,0.00,0.00,VWS V14.01,2013-07-13 05:47:00,
2013-07-13 00:52:00,71.5,61.2,29.97,ENE,78,0.0,3.0,70,0.00,,,0.00,0.00,VWS V14.01,2013-07-13 05:52:00,
2013-07-13 00:57:00,71.4,61.1,29.96,ENE,78,0.0,3.0,70,0.00,,,0.00,0.00,VWS V14.01,2013-07-13 05:57:00,
2013-07-13 01:02:00,71.2,60.9,29.96,ENE,78,0.0,0.0,70,0.00,,,0.00,0.00,VWS V14.01,2013-07-13 06:02:00,
2013-07-13 01:07:00,71.1,60.8,29.96,ENE,78,1.0,2.0,70,0.00,,,0.00,0.00,VWS V14.01,2013-07-13 06:07:00,
2013-07-13 01:12:00,70.9,60.6,29.96,ENE,78,0.0,1.0,70,0.00,,,0.00,0.00,VWS V14.01,2013-07-13 06:12:00,
2013-07-13 01:17:00,70.7,60.8,29.95,ENE,78,1.0,1.0,71,0.00,,,0.00,0.00,VWS V14.01,2013-07-13 06:17:00,
2013-07-13 01:22:00,70.6,61.1,29.95,ENE,78,0.0,1.0,72,0.00,,,0.00,0.00,VWS V14.01,2013-07-13 06:22:00,
2013-07-13 01:27:00,70.3,60.9,29.95,ENE,78,0.0,1.0,72,0.00,,,0.00,0.00,VWS V14.01,2013-07-13 06:27:00,
2013-07-13 01:32:00,70.2,60.8,29.95,ENE,78,0.0,1.0,72,0.00,,,0.00,0.00,VWS V14.01,2013-07-13 06:32:00,
2013-07-13 01:37:00,70.0,61.0,29.95,ENE,78,0.0,1.0,73,0.00,,,0.00,0.00,VWS V14.01,2013-07-13 06:37:00,
2013-07-13 01:42:00,69.8,60.8,29.95,ENE,78,0.0,0.0,73,0.00,,,0.00,0.00,VWS V14.01,2013-07-13 06:42:00,
2013-07-13 01:47:00,69.7,60.7,29.95,ENE,78,0.0,1.0,73,0.00,,,0.00,0.00,VWS V14.01,2013-07-13 06:47:00,
2013-07-13 01:52:00,69.5,60.9,29.95,ENE,78,0.0,1.0,74,0.00,,,0.00,0.00,VWS V14.01,2013-07-13 06:52:00,
2013-07-13 01:57:00,69.4,60.8,29.95,ENE,78,0.0,1.0,74,0.00,,,0.00,0.00,VWS V14.01,2013-07-13 06:57:00,
2013-07-13 02:02:00,69.2,61.0,29.95,ENE,78,0.0,1.0,75,0.00,,,0.00,0.00,VWS V14.01,2013-07-13 07:02:00,
2013-07-13 02:07:00,69.1,60.8,29.95,ENE,78,1.0,1.0,75,0.00,,,0.00,0.00,VWS V14.01,2013-07-13 07:07:00,
2013-07-13 02:12:00,69.0,60.8,29.95,ENE,78,2.0,2.0,75,0.00,,,0.00,0.00,VWS V14.01,2013-07-13 07:12:00,
2013-07-13 02:17:00,69.1,60.8,29.95,ENE,78,0.0,2.0,75,0.00,,,0.00,0.00,VWS V14.01,2013-07-13 07:17:00,
2013-07-13 02:22:00,69.1,60.8,29.95,ENE,78,0.0,3.0,75,0.00,,,0.00,0.00,VWS V14.01,2013-07-13 07:22:00,
2013-07-13 02:27:00,69.1,60.8,29.95,ENE,78,0.0,3.0,75,0.00,,,0.00,0.00,VWS V14.01,2013-07-13 07:27:00,
2013-07-13 02:32:00,69.1,60.8,29.95,East,79,1.0,3.0,75,0.00,,,0.00,0.00,VWS V14.01,2013-07-13 07:32:00,
2013-07-13 02:37:00,69.0,60.8,29.95,East,79,0.0,3.0,75,0.00,,,0.00,0.00,VWS V14.01,2013-07-13 07:37:00,
2013-07-13 02:42:00,68.9,60.7,29.95,East,79,0.0,1.0,75,0.00,,,0.00,0.00,VWS V14.01,2013-07-13 07:42:00,
2013-07-13 02:47:00,68.7,60.8,29.95,East,79,2.0,2.0,76,0.00,,,0.00,0.00,VWS V14.01,2013-07-13 07:47:00,
2013-07-13 02:52:00,68.6,60.7,29.96,East,79,0.0,1.0,76,0.00,,,0.00,0.00,VWS V14.01,2013-07-13 07:52:00,
2013-07-13 02:57:00,68.4,60.5,29.95,East,79,0.0,2.0,76,0.00,,,0.00,0.00,VWS V14.01,2013-07-13 07:57:00,
2013-07-13 03:02:00,68.3,60.8,29.95,East,79,0.0,1.0,77,0.00,,,0.00,0.00,VWS V14.01,2013-07-13 08:02:00,
2013-07-13 03:07:00,68.1,60.6,29.95,East,79,1.0,2.0,77,0.00,,,0.00,0.00,VWS V14.01,2013-07-13 08:07:00,
2013-07-13 03:12:00,68.0,60.5,29.95,East,79,0.0,1.0,77,0.00,,,0.00,0.00,VWS V14.01,2013-07-13 08:12:00,
2013-07-13 03:17:00,67.9,60.8,29.95,ENE,78,0.0,2.0,78,0.00,,,0.00,0.00,VWS V14.01,2013-07-13 08:17:00,
2013-07-13 03:22:00,67.8,60.7,29.95,ENE,78,0.0,1.0,78,0.00,,,0.00,0.00,VWS V14.01,2013-07-13 08:22:00,
2013-07-13 03:27:00,67.6,60.5,29.96,ENE,78,0.0,2.0,78,0.00,,,0.00,0.00,VWS V14.01,2013-07-13 08:27:00,
2013-07-13 03:32:00,67.5,60.4,29.95,East,79,0.0,1.0,78,0.00,,,0.00,0.00,VWS V14.01,2013-07-13 08:32:00,
2013-07-13 03:37:00,67.4,60.7,29.95,East,79,0.0,2.0,79,0.00,,,0.00,0.00,VWS V14.01,2013-07-13 08:37:00,
2013-07-13 03:42:00,67.4,60.7,29.95,East,79,0.0,1.0,79,0.00,,,0.00,0.00,VWS V14.01,2013-07-13 08:42:00,
2013-07-13 03:47:00,67.3,60.6,29.95,East,79,0.0,2.0,79,0.00,,,0.00,0.00,VWS V14.01,2013-07-13 08:47:00,
2013-07-13 03:52:00,67.2,60.5,29.95,East,79,0.0,1.0,79,0.00,,,0.00,0.00,VWS V14.01,2013-07-13 08:52:00,
2013-07-13 03:57:00,67.1,60.4,29.96,East,79,0.0,1.0,79,0.00,,,0.00,0.00,VWS V14.01,2013-07-13 08:57:00,
2013-07-13 04:02:00,67.0,60.6,29.96,East,79,0.0,2.0,80,0.00,,,0.00,0.00,VWS V14.01,2013-07-13 09:02:00,
2013-07-13 04:07:00,66.9,60.5,29.96,East,79,0.0,2.0,80,0.00,,,0.00,0.00,VWS V14.01,2013-07-13 09:07:00,
2013-07-13 04:12:00,66.8,60.4,29.96,East,79,0.0,1.0,80,0.00,,,0.00,0.00,VWS V14.01,2013-07-13 09:12:00,
2013-07-13 04:17:00,66.7,60.3,29.96,East,79,0.0,1.0,80,0.00,,,0.00,0.00,VWS V14.01,2013-07-13 09:17:00,
2013-07-13 04:22:00,66.6,60.6,29.96,East,79,0.0,0.0,81,0.00,,,0.00,0.00,VWS V14.01,2013-07-13 09:22:00,
2013-07-13 04:27:00,66.5,60.5,29.96,East,79,0.0,1.0,81,0.00,,,0.00,0.00,VWS V14.01,2013-07-13 09:27:00,
2013-07-13 04:32:00,66.4,60.4,29.96,East,79,0.0,1.0,81,0.00,,,0.00,0.00,VWS V14.01,2013-07-13 09:32:00,
2013-07-13 04:37:00,66.3,60.3,29.96,East,79,0.0,1.0,81,0.00,,,0.00,0.00,VWS V14.01,2013-07-13 09:37:00,
2013-07-13 04:42:00,66.2,60.2,29.97,East,79,0.0,1.0,81,0.00,,,0.00,0.00,VWS V14.01,2013-07-13 09:42:00,
2013-07-13 04:47:00,66.1,60.5,29.97,East,79,0.0,1.0,82,0.00,,,0.00,0.00,VWS V14.01,2013-07-13 09:47:00,
2013-07-13 04:52:00,66.0,60.3,29.97,East,79,0.0,1.0,82,0.00,,,0.00,0.00,VWS V14.01,2013-07-13 09:52:00,
2013-07-13 04:57:00,65.8,60.2,29.97,East,79,0.0,1.0,82,0.00,,,0.00,0.00,VWS V14.01,2013-07-13 09:57:00,
2013-07-13 05:02:00,65.8,60.5,29.97,East,79,0.0,1.0,83,0.00,,,0.00,0.00,VWS V14.01,2013-07-13 10:02:00,
2013-07-13 05:07:00,65.7,60.1,29.97,East,79,0.0,1.0,82,0.00,,,0.00,0.00,VWS V14.01,2013-07-13 10:07:00,
2013-07-13 05:12:00,65.6,60.3,29.97,East,79,0.0,0.0,83,0.00,,,0.00,0.00,VWS V14.01,2013-07-13 10:12:00,
2013-07-13 05:17:00,65.4,60.1,29.97,East,79,0.0,0.0,83,0.00,,,0.00,0.00,VWS V14.01,2013-07-13 10:17:00,
2013-07-13 05:22:00,65.3,60.0,29.97,ENE,78,2.0,2.0,83,0.00,,,0.00,0.00,VWS V14.01,2013-07-13 10:22:00,
2013-07-13 05:28:00,65.3,60.3,29.97,East,79,0.0,2.0,84,0.00,,,0.00,0.00,VWS V14.01,2013-07-13 10:28:00,
2013-07-13 05:33:00,65.3,60.3,29.97,East,79,0.0,1.0,84,0.00,,,0.00,0.00,VWS V14.01,2013-07-13 10:33:00,
2013-07-13 05:38:00,65.3,60.3,29.97,East,79,0.0,1.0,84,0.00,,,0.00,0.00,VWS V14.01,2013-07-13 10:38:00,
2013-07-13 05:43:00,65.2,60.2,29.97,East,79,0.0,0.0,84,0.00,,,0.00,0.00,VWS V14.01,2013-07-13 10:43:00,
2013-07-13 05:48:00,65.1,60.2,29.97,East,79,0.0,1.0,84,0.00,,,0.00,0.00,VWS V14.01,2013-07-13 10:48:00,
2013-07-13 05:53:00,65.0,60.0,29.97,East,79,0.0,1.0,84,0.00,,,0.00,0.00,VWS V14.01,2013-07-13 10:53:00,
2013-07-13 05:58:00,65.0,60.0,29.97,East,79,0.0,1.0,84,0.00,,,0.00,5.00,VWS V14.01,2013-07-13 10:58:00,
2013-07-13 06:03:00,64.9,60.0,29.97,East,79,0.0,0.0,84,0.00,,,0.00,9.00,VWS V14.01,2013-07-13 11:03:00,
2013-07-13 06:08:00,64.8,60.2,29.96,ENE,78,0.0,0.0,85,0.00,,,0.00,11.00,VWS V14.01,2013-07-13 11:08:00,
2013-07-13 06:13:00,64.8,60.2,29.96,East,79,0.0,0.0,85,0.00,,,0.00,14.00,VWS V14.01,2013-07-13 11:13:00,
2013-07-13 06:18:00,64.9,60.3,29.96,East,79,0.0,0.0,85,0.00,,,0.00,21.00,VWS V14.01,2013-07-13 11:18:00,
2013-07-13 06:23:00,65.1,60.5,29.97,East,79,0.0,1.0,85,0.00,,,0.00,30.00,VWS V14.01,2013-07-13 11:23:00,
2013-07-13 06:28:00,65.4,60.8,29.97,East,79,0.0,1.0,85,0.00,,,0.00,39.00,VWS V14.01,2013-07-13 11:28:00,
2013-07-13 06:33:00,65.7,61.1,29.97,ENE,78,0.0,1.0,85,0.00,,,0.00,49.00,VWS V14.01,2013-07-13 11:33:00,
2013-07-13 06:38:00,66.1,61.1,29.97,ENE,78,0.0,1.0,84,0.00,,,0.00,60.00,VWS V14.01,2013-07-13 11:38:00,
2013-07-13 06:43:00,66.4,61.4,29.98,East,79,0.0,0.0,84,0.00,,,0.00,72.00,VWS V14.01,2013-07-13 11:43:00,
2013-07-13 06:48:00,66.7,61.4,29.98,East,79,0.0,1.0,83,0.00,,,0.00,86.00,VWS V14.01,2013-07-13 11:48:00,
2013-07-13 06:53:00,67.2,61.9,29.98,East,79,0.0,0.0,83,0.00,,,0.00,105.00,VWS V14.01,2013-07-13 11:53:00,
2013-07-13 06:58:00,67.9,62.2,29.98,East,94,0.0,1.0,82,0.00,,,0.00,125.00,VWS V14.01,2013-07-13 11:58:00,
2013-07-13 07:03:00,68.4,62.3,29.98,East,94,0.0,2.0,81,0.00,,,0.00,144.00,VWS V14.01,2013-07-13 12:03:00,
2013-07-13 07:08:00,68.9,62.5,29.98,East,93,1.0,3.0,80,0.00,,,0.00,165.00,VWS V14.01,2013-07-13 12:08:00,
2013-07-13 07:13:00,69.2,62.1,29.98,East,94,1.0,2.0,78,0.00,,,0.00,188.00,VWS V14.01,2013-07-13 12:13:00,
2013-07-13 07:18:00,69.4,62.2,29.98,ENE,75,1.0,3.0,78,0.00,,,0.00,211.00,VWS V14.01,2013-07-13 12:18:00,
2013-07-13 07:23:00,69.7,62.5,29.98,ENE,76,1.0,2.0,78,0.00,,,0.00,230.00,VWS V14.01,2013-07-13 12:23:00,
2013-07-13 07:28:00,70.1,62.6,29.98,East,81,0.0,3.0,77,0.00,,,0.00,244.00,VWS V14.01,2013-07-13 12:28:00,
2013-07-13 07:33:00,70.6,62.7,29.98,East,82,2.0,3.0,76,0.00,,,0.00,264.00,VWS V14.01,2013-07-13 12:33:00,
2013-07-13 07:38:00,71.1,62.8,29.98,East,87,2.0,3.0,75,0.00,,,0.00,283.00,VWS V14.01,2013-07-13 12:38:00,
2013-07-13 07:43:00,71.6,62.9,29.98,East,90,2.0,2.0,74,0.00,,,0.00,308.00,VWS V14.01,2013-07-13 12:43:00,
2013-07-13 07:48:00,72.1,62.6,29.98,East,84,0.0,5.0,72,0.00,,,0.00,332.00,VWS V14.01,2013-07-13 12:48:00,
2013-07-13 07:53:00,72.4,62.5,29.99,ENE,69,0.0,4.0,71,0.00,,,0.00,272.00,VWS V14.01,2013-07-13 12:53:00,
2013-07-13 07:58:00,72.6,62.7,29.98,ENE,72,3.0,4.0,71,0.00,,,0.00,146.00,VWS V14.01,2013-07-13 12:58:00,
2013-07-13 08:03:00,73.0,63.0,29.98,ENE,72,0.0,2.0,71,0.00,,,0.00,397.00,VWS V14.01,2013-07-13 13:03:00,
2013-07-13 08:08:00,73.5,62.7,29.98,ENE,66,0.0,3.0,69,0.00,,,0.00,315.00,VWS V14.01,2013-07-13 13:08:00,
2013-07-13 08:13:00,73.8,63.0,29.98,ENE,69,1.0,3.0,69,0.00,,,0.00,394.00,VWS V14.01,2013-07-13 13:13:00,
2013-07-13 08:18:00,73.9,63.1,29.98,ENE,69,1.0,4.0,69,0.00,,,0.00,332.00,VWS V14.01,2013-07-13 13:18:00,
2013-07-13 08:23:00,74.0,63.2,29.98,ENE,69,1.0,3.0,69,0.00,,,0.00,461.00,VWS V14.01,2013-07-13 13:23:00,
2013-07-13 08:28:00,74.4,63.6,29.98,ENE,69,0.0,3.0,69,0.00,,,0.00,318.00,VWS V14.01,2013-07-13 13:28:00,
2013-07-13 08:33:00,74.9,63.2,29.98,ENE,75,4.0,4.0,67,0.00,,,0.00,513.00,VWS V14.01,2013-07-13 13:33:00,
2013-07-13 08:38:00,75.4,63.3,29.98,ENE,73,3.0,4.0,66,0.00,,,0.00,468.00,VWS V14.01,2013-07-13 13:38:00,
2013-07-13 08:43:00,76.0,63.4,29.98,ENE,74,1.0,3.0,65,0.00,,,0.00,454.00,VWS V14.01,2013-07-13 13:43:00,
2013-07-13 08:48:00,76.2,63.1,29.98,East,90,1.0,5.0,64,0.00,,,0.00,308.00,VWS V14.01,2013-07-13 13:48:00,
2013-07-13 08:53:00,76.4,63.3,29.98,East,87,1.0,2.0,64,0.00,,,0.00,338.00,VWS V14.01,2013-07-13 13:53:00,
2013-07-13 08:58:00,76.7,62.7,29.98,East,87,0.0,2.0,62,0.00,,,0.00,366.00,VWS V14.01,2013-07-13 13:58:00,
2013-07-13 09:03:00,77.0,63.5,29.98,East,83,1.0,2.0,63,0.00,,,0.00,457.00,VWS V14.01,2013-07-13 14:03:00,
2013-07-13 09:08:00,77.3,62.3,29.98,ENE,57,1.0,4.0,60,0.00,,,0.00,564.00,VWS V14.01,2013-07-13 14:08:00,
2013-07-13 09:13:00,77.7,62.7,29.98,ESE,107,4.0,5.0,60,0.00,,,0.00,524.00,VWS V14.01,2013-07-13 14:13:00,
2013-07-13 09:18:00,77.1,61.7,29.99,East,94,0.0,8.0,59,0.00,,,0.00,438.00,VWS V14.01,2013-07-13 14:18:00,
2013-07-13 09:23:00,77.0,62.5,29.99,East,96,0.0,3.0,61,0.00,,,0.00,519.00,VWS V14.01,2013-07-13 14:23:00,
2013-07-13 09:28:00,77.6,63.1,29.99,ESE,107,4.0,6.0,61,0.00,,,0.00,439.00,VWS V14.01,2013-07-13 14:28:00,
2013-07-13 09:33:00,77.6,63.1,29.98,ESE,102,1.0,2.0,61,0.00,,,0.00,464.00,VWS V14.01,2013-07-13 14:33:00,
2013-07-13 09:38:00,77.7,62.7,29.99,East,96,0.0,6.0,60,0.00,,,0.00,410.00,VWS V14.01,2013-07-13 14:38:00,
2013-07-13 09:43:00,78.4,62.9,29.99,ENE,68,1.0,5.0,59,0.00,,,0.00,494.00,VWS V14.01,2013-07-13 14:43:00,
2013-07-13 09:48:00,78.7,62.2,29.99,NE,44,6.0,6.0,57,0.00,,,0.00,527.00,VWS V14.01,2013-07-13 14:48:00,
2013-07-13 09:53:00,78.7,62.2,29.99,ENE,64,1.0,5.0,57,0.00,,,0.00,554.00,VWS V14.01,2013-07-13 14:53:00,
2013-07-13 09:58:00,79.0,63.5,29.99,ENE,69,2.0,5.0,59,0.00,,,0.00,701.00,VWS V14.01,2013-07-13 14:58:00,
2013-07-13 10:03:00,79.1,62.1,29.99,East,92,5.0,7.0,56,0.00,,,0.00,918.00,VWS V14.01,2013-07-13 15:03:00,
2013-07-13 10:08:00,79.4,62.9,29.98,ENE,59,5.0,7.0,57,0.00,,,0.00,958.00,VWS V14.01,2013-07-13 15:08:00,
2013-07-13 10:13:00,79.7,62.6,29.99,NE,41,3.0,7.0,56,0.00,,,0.00,991.00,VWS V14.01,2013-07-13 15:13:00,
2013-07-13 10:18:00,80.5,62.3,29.98,NE,53,1.0,7.0,54,0.00,,,0.00,626.00,VWS V14.01,2013-07-13 15:18:00,
2013-07-13 10:23:00,80.4,62.2,29.99,East,84,2.0,8.0,54,0.00,,,0.00,687.00,VWS V14.01,2013-07-13 15:23:00,
2013-07-13 10:28:00,79.9,60.7,29.99,ESE,106,5.0,9.0,52,0.00,,,0.00,670.00,VWS V14.01,2013-07-13 15:28:00,
2013-07-13 10:33:00,80.0,61.9,29.99,ESE,103,2.0,8.0,54,0.00,,,0.00,670.00,VWS V14.01,2013-07-13 15:33:00,
2013-07-13 10:38:00,80.3,62.2,30.00,East,97,5.0,10.0,54,0.00,,,0.00,663.00,VWS V14.01,2013-07-13 15:38:00,
2013-07-13 10:43:00,80.8,61.0,29.99,East,91,5.0,8.0,51,0.00,,,0.00,710.00,VWS V14.01,2013-07-13 15:43:00,
2013-07-13 10:48:00,80.7,61.5,29.99,East,88,3.0,9.0,52,0.00,,,0.00,749.00,VWS V14.01,2013-07-13 15:48:00,
2013-07-13 10:53:00,81.2,61.9,30.00,ENE,59,3.0,9.0,52,0.00,,,0.00,605.00,VWS V14.01,2013-07-13 15:53:00,
2013-07-13 10:58:00,80.8,60.4,30.00,East,80,2.0,9.0,50,0.00,,,0.00,673.00,VWS V14.01,2013-07-13 15:58:00,
2013-07-13 11:03:00,80.5,60.7,30.00,East,83,3.0,11.0,51,0.00,,,0.00,884.00,VWS V14.01,2013-07-13 16:03:00,
2013-07-13 11:08:00,81.7,61.8,30.00,ESE,103,11.0,11.0,51,0.00,,,0.00,898.00,VWS V14.01,2013-07-13 16:08:00,
2013-07-13 11:13:00,81.6,61.7,29.99,ESE,104,3.0,8.0,51,0.00,,,0.00,708.00,VWS V14.01,2013-07-13 16:13:00,
2013-07-13 11:18:00,81.2,61.9,29.99,ENE,63,2.0,9.0,52,0.00,,,0.00,800.00,VWS V14.01,2013-07-13 16:18:00,
2013-07-13 11:23:00,81.3,62.0,29.99,ESE,118,1.0,9.0,52,0.00,,,0.00,1035.00,VWS V14.01,2013-07-13 16:23:00,
2013-07-13 11:28:00,82.1,61.6,29.99,SSE,168,1.0,10.0,50,0.00,,,0.00,837.00,VWS V14.01,2013-07-13 16:28:00,
2013-07-13 11:33:00,81.9,62.0,29.99,NE,43,4.0,11.0,51,0.00,,,0.00,844.00,VWS V14.01,2013-07-13 16:33:00,
2013-07-13 11:38:00,82.4,61.9,29.99,East,96,7.0,11.0,50,0.00,,,0.00,993.00,VWS V14.01,2013-07-13 16:38:00,
2013-07-13 11:43:00,82.5,60.8,29.99,East,95,3.0,9.0,48,0.00,,,0.00,1037.00,VWS V14.01,2013-07-13 16:43:00,
2013-07-13 11:48:00,82.1,59.9,29.98,ENE,57,3.0,11.0,47,0.00,,,0.00,847.00,VWS V14.01,2013-07-13 16:48:00,
2013-07-13 11:53:00,81.7,60.1,29.99,ESE,115,7.0,10.0,48,0.00,,,0.00,1044.00,VWS V14.01,2013-07-13 16:53:00,
2013-07-13 11:58:00,81.9,60.3,29.99,East,86,1.0,10.0,48,0.00,,,0.00,1041.00,VWS V14.01,2013-07-13 16:58:00,
2013-07-13 12:03:00,82.7,61.0,29.99,SE,126,5.0,7.0,48,0.00,,,0.00,1028.00,VWS V14.01,2013-07-13 17:03:00,
2013-07-13 12:08:00,82.8,61.1,29.98,East,98,7.0,9.0,48,0.00,,,0.00,1016.00,VWS V14.01,2013-07-13 17:08:00,
2013-07-13 12:13:00,82.5,61.4,29.98,ESE,109,4.0,10.0,49,0.00,,,0.00,1011.00,VWS V14.01,2013-07-13 17:13:00,
2013-07-13 12:18:00,82.7,61.6,29.98,ENE,69,7.0,10.0,49,0.00,,,0.00,1007.00,VWS V14.01,2013-07-13 17:18:00,
2013-07-13 12:23:00,82.3,62.4,29.98,East,92,9.0,10.0,51,0.00,,,0.00,1009.00,VWS V14.01,2013-07-13 17:23:00,
2013-07-13 12:28:00,82.7,63.3,29.98,ESE,117,4.0,11.0,52,0.00,,,0.00,1013.00,VWS V14.01,2013-07-13 17:28:00,
2013-07-13 12:33:00,82.6,62.7,29.98,East,86,10.0,10.0,51,0.00,,,0.00,1004.00,VWS V14.01,2013-07-13 17:33:00,
2013-07-13 12:38:00,83.0,63.0,29.98,NE,49,0.0,12.0,51,0.00,,,0.00,1009.00,VWS V14.01,2013-07-13 17:38:00,
2013-07-13 12:43:00,83.5,61.8,29.98,North,11,1.0,7.0,48,0.00,,,0.00,1009.00,VWS V14.01,2013-07-13 17:43:00,
2013-07-13 12:48:00,83.5,62.9,29.98,ESE,121,7.0,12.0,50,0.00,,,0.00,1013.00,VWS V14.01,2013-07-13 17:48:00,
2013-07-13 12:53:00,83.1,62.0,29.98,East,82,2.0,9.0,49,0.00,,,0.00,1013.00,VWS V14.01,2013-07-13 17:53:00,
2013-07-13 12:58:00,83.6,61.8,29.98,NE,51,3.0,10.0,48,0.00,,,0.00,1020.00,VWS V14.01,2013-07-13 17:58:00,
2013-07-13 13:03:00,84.0,61.6,29.98,ESE,104,7.0,10.0,47,0.00,,,0.00,1025.00,VWS V14.01,2013-07-13 18:03:00,
2013-07-13 13:08:00,83.7,60.7,29.97,East,96,5.0,10.0,46,0.00,,,0.00,1023.00,VWS V14.01,2013-07-13 18:08:00,
2013-07-13 13:13:00,83.8,61.4,29.96,ESE,112,3.0,10.0,47,0.00,,,0.00,1020.00,VWS V14.01,2013-07-13 18:13:00,
2013-07-13 13:18:00,84.2,62.4,29.97,East,91,2.0,10.0,48,0.00,,,0.00,1014.00,VWS V14.01,2013-07-13 18:18:00,
2013-07-13 13:23:00,84.6,61.6,29.97,ESE,111,7.0,12.0,46,0.00,,,0.00,1013.00,VWS V14.01,2013-07-13 18:23:00,
2013-07-13 13:28:00,84.4,63.2,29.97,ESE,106,5.0,12.0,49,0.00,,,0.00,1014.00,VWS V14.01,2013-07-13 18:28:00,
2013-07-13 13:33:00,84.7,62.3,29.97,East,100,0.0,6.0,47,0.00,,,0.00,1013.00,VWS V14.01,2013-07-13 18:33:00,
2013-07-13 13:38:00,84.7,62.3,29.97,East,86,3.0,7.0,47,0.00,,,0.00,1013.00,VWS V14.01,2013-07-13 18:38:00,
2013-07-13 13:43:00,85.1,62.6,29.96,ENE,58,3.0,5.0,47,0.00,,,0.00,1007.00,VWS V14.01,2013-07-13 18:43:00,
2013-07-13 13:48:00,84.7,62.3,29.96,NNE,22,4.0,7.0,47,0.00,,,0.00,1000.00,VWS V14.01,2013-07-13 18:48:00,
2013-07-13 13:53:00,85.0,63.7,29.95,East,92,5.0,9.0,49,0.00,,,0.00,1007.00,VWS V14.01,2013-07-13 18:53:00,
2013-07-13 13:58:00,83.9,62.7,29.96,NE,37,4.0,10.0,49,0.00,,,0.00,998.00,VWS V14.01,2013-07-13 18:58:00,
2013-07-13 14:03:00,84.1,62.9,29.96,ESE,119,3.0,8.0,49,0.00,,,0.00,993.00,VWS V14.01,2013-07-13 19:03:00,
2013-07-13 14:08:00,84.6,62.8,29.95,North,360,3.0,10.0,48,0.00,,,0.00,983.00,VWS V14.01,2013-07-13 19:08:00,
2013-07-13 14:13:00,85.5,63.6,29.95,East,101,1.0,7.0,48,0.00,,,0.00,977.00,VWS V14.01,2013-07-13 19:13:00,
2013-07-13 14:18:00,85.5,63.0,29.95,ESE,105,8.0,11.0,47,0.00,,,0.00,979.00,VWS V14.01,2013-07-13 19:18:00,
2013-07-13 14:23:00,84.4,62.6,29.95,East,99,0.0,7.0,48,0.00,,,0.00,977.00,VWS V14.01,2013-07-13 19:23:00,
2013-07-13 14:28:00,85.2,65.1,29.94,East,98,1.0,7.0,51,0.00,,,0.00,979.00,VWS V14.01,2013-07-13 19:28:00,
2013-07-13 14:33:00,85.7,64.4,29.94,East,79,2.0,8.0,49,0.00,,,0.00,984.00,VWS V14.01,2013-07-13 19:33:00,
2013-07-13 14:38:00,85.9,63.3,29.94,NNE,18,2.0,8.0,47,0.00,,,0.00,991.00,VWS V14.01,2013-07-13 19:38:00,
2013-07-13 14:43:00,85.9,64.0,29.94,East,98,3.0,8.0,48,0.00,,,0.00,969.00,VWS V14.01,2013-07-13 19:43:00,
2013-07-13 14:48:00,85.5,63.6,29.94,East,86,3.0,10.0,48,0.00,,,0.00,981.00,VWS V14.01,2013-07-13 19:48:00,
2013-07-13 14:53:00,86.1,63.5,29.94,ENE,63,0.0,5.0,47,0.00,,,0.00,944.00,VWS V14.01,2013-07-13 19:53:00,
2013-07-13 14:58:00,86.0,62.8,29.93,NE,45,6.0,7.0,46,0.00,,,0.00,932.00,VWS V14.01,2013-07-13 19:58:00,
2013-07-13 15:03:00,86.1,62.9,29.93,NE,45,3.0,9.0,46,0.00,,,0.00,926.00,VWS V14.01,2013-07-13 20:03:00,
2013-07-13 15:08:00,86.8,62.9,29.93,ENE,72,4.0,9.0,45,0.00,,,0.00,921.00,VWS V14.01,2013-07-13 20:08:00,
2013-07-13 15:13:00,85.9,62.7,29.94,East,98,1.0,8.0,46,0.00,,,0.00,912.00,VWS V14.01,2013-07-13 20:13:00,
2013-07-13 15:18:00,85.8,62.0,29.94,ESE,104,3.0,9.0,45,0.00,,,0.00,881.00,VWS V14.01,2013-07-13 20:18:00,
2013-07-13 15:23:00,85.9,62.7,29.93,NE,36,4.0,7.0,46,0.00,,,0.00,902.00,VWS V14.01,2013-07-13 20:23:00,
2013-07-13 15:28:00,86.6,63.4,29.93,NE,51,1.0,7.0,46,0.00,,,0.00,888.00,VWS V14.01,2013-07-13 20:28:00,
2013-07-13 15:33:00,86.5,62.7,29.93,East,94,2.0,7.0,45,0.00,,,0.00,874.00,VWS V14.01,2013-07-13 20:33:00,
2013-07-13 15:38:00,86.1,62.9,29.93,ESE,111,7.0,9.0,46,0.00,,,0.00,856.00,VWS V14.01,2013-07-13 20:38:00,
2013-07-13 15:43:00,85.4,62.9,29.93,ESE,119,4.0,6.0,47,0.00,,,0.00,847.00,VWS V14.01,2013-07-13 20:43:00,
2013-07-13 15:48:00,85.8,63.3,29.93,SE,126,7.0,8.0,47,0.00,,,0.00,835.00,VWS V14.01,2013-07-13 20:48:00,
2013-07-13 15:53:00,86.1,62.9,29.93,ESE,118,4.0,5.0,46,0.00,,,0.00,816.00,VWS V14.01,2013-07-13 20:53:00,
2013-07-13 15:58:00,86.0,63.4,29.93,SE,129,4.0,8.0,47,0.00,,,0.00,796.00,VWS V14.01,2013-07-13 20:58:00,
2013-07-13 16:03:00,86.1,63.5,29.92,NNE,25,2.0,10.0,47,0.00,,,0.00,784.00,VWS V14.01,2013-07-13 21:03:00,
2013-07-13 16:08:00,86.5,63.9,29.92,East,84,3.0,10.0,47,0.00,,,0.00,761.00,VWS V14.01,2013-07-13 21:08:00,
2013-07-13 16:13:00,86.8,62.9,29.92,ESE,103,1.0,9.0,45,0.00,,,0.00,782.00,VWS V14.01,2013-07-13 21:13:00,
2013-07-13 16:18:00,86.7,63.5,29.92,NNE,12,1.0,9.0,46,0.00,,,0.00,693.00,VWS V14.01,2013-07-13 21:18:00,
2013-07-13 16:23:00,86.6,62.8,29.92,East,92,3.0,9.0,45,0.00,,,0.00,327.00,VWS V14.01,2013-07-13 21:23:00,
2013-07-13 16:28:00,85.9,63.3,29.92,East,83,5.0,9.0,47,0.00,,,0.00,524.00,VWS V14.01,2013-07-13 21:28:00,
2013-07-13 16:33:00,85.7,63.2,29.92,East,91,3.0,6.0,47,0.00,,,0.00,698.00,VWS V14.01,2013-07-13 21:33:00,
2013-07-13 16:38:00,86.0,63.4,29.92,ENE,65,3.0,6.0,47,0.00,,,0.00,722.00,VWS V14.01,2013-07-13 21:38:00,
2013-07-13 16:43:00,86.6,64.0,29.92,East,80,7.0,7.0,47,0.00,,,0.00,719.00,VWS V14.01,2013-07-13 21:43:00,
2013-07-13 16:48:00,86.5,63.9,29.92,ESE,102,2.0,8.0,47,0.00,,,0.00,722.00,VWS V14.01,2013-07-13 21:48:00,
2013-07-13 16:53:00,86.6,64.0,29.91,East,96,5.0,9.0,47,0.00,,,0.00,735.00,VWS V14.01,2013-07-13 21:53:00,
2013-07-13 16:58:00,86.2,63.6,29.92,East,87,1.0,9.0,47,0.00,,,0.00,731.00,VWS V14.01,2013-07-13 21:58:00,
2013-07-13 17:03:00,86.2,63.6,29.92,NNE,17,3.0,5.0,47,0.00,,,0.00,617.00,VWS V14.01,2013-07-13 22:03:00,
2013-07-13 17:08:00,86.3,63.1,29.92,East,85,3.0,5.0,46,0.00,,,0.00,265.00,VWS V14.01,2013-07-13 22:08:00,
2013-07-13 17:13:00,85.7,62.6,29.91,East,99,5.0,7.0,46,0.00,,,0.00,276.00,VWS V14.01,2013-07-13 22:13:00,
2013-07-13 17:18:00,85.5,62.4,29.91,East,79,3.0,7.0,46,0.00,,,0.00,357.00,VWS V14.01,2013-07-13 22:18:00,
2013-07-13 17:23:00,85.5,63.0,29.91,ENE,67,1.0,7.0,47,0.00,,,0.00,577.00,VWS V14.01,2013-07-13 22:23:00,
2013-07-13 17:28:00,85.6,63.7,29.91,East,87,3.0,8.0,48,0.00,,,0.00,564.00,VWS V14.01,2013-07-13 22:28:00,
2013-07-13 17:33:00,85.7,63.8,29.92,East,97,2.0,8.0,48,0.00,,,0.00,541.00,VWS V14.01,2013-07-13 22:33:00,
2013-07-13 17:38:00,85.5,63.6,29.91,NE,48,4.0,8.0,48,0.00,,,0.00,527.00,VWS V14.01,2013-07-13 22:38:00,
2013-07-13 17:43:00,85.6,63.7,29.91,NE,35,3.0,6.0,48,0.00,,,0.00,492.00,VWS V14.01,2013-07-13 22:43:00,
2013-07-13 17:48:00,85.8,63.3,29.91,North,11,0.0,6.0,47,0.00,,,0.00,464.00,VWS V14.01,2013-07-13 22:48:00,
2013-07-13 17:53:00,85.5,63.6,29.91,ESE,102,4.0,8.0,48,0.00,,,0.00,445.00,VWS V14.01,2013-07-13 22:53:00,
2013-07-13 17:58:00,85.4,63.5,29.92,ESE,109,1.0,8.0,48,0.00,,,0.00,436.00,VWS V14.01,2013-07-13 22:58:00,
2013-07-13 18:03:00,85.3,64.0,29.91,NE,46,4.0,5.0,49,0.00,,,0.00,427.00,VWS V14.01,2013-07-13 23:03:00,
2013-07-13 18:08:00,85.4,63.5,29.91,ESE,115,1.0,7.0,48,0.00,,,0.00,422.00,VWS V14.01,2013-07-13 23:08:00,
2013-07-13 18:13:00,85.5,63.6,29.92,North,360,3.0,8.0,48,0.00,,,0.00,401.00,VWS V14.01,2013-07-13 23:13:00,
2013-07-13 18:18:00,85.4,63.5,29.92,East,92,2.0,8.0,48,0.00,,,0.00,364.00,VWS V14.01,2013-07-13 23:18:00,
2013-07-13 18:23:00,85.4,63.5,29.92,NE,40,2.0,5.0,48,0.00,,,0.00,359.00,VWS V14.01,2013-07-13 23:23:00,
2013-07-13 18:28:00,85.3,63.4,29.92,ENE,67,3.0,6.0,48,0.00,,,0.00,364.00,VWS V14.01,2013-07-13 23:28:00,
2013-07-13 18:29:00,85.3,63.4,29.92,ENE,78,2.0,6.0,48,0.00,,,0.00,366.00,VWS V14.01,2013-07-13 23:29:00,
2013-07-13 18:34:00,84.9,62.4,29.92,East,95,1.0,8.0,47,0.00,,,0.00,343.00,VWS V14.01,2013-07-13 23:34:00,
2013-07-13 18:39:00,84.6,63.3,29.92,East,89,3.0,9.0,49,0.00,,,0.00,316.00,VWS V14.01,2013-07-13 23:39:00,
2013-07-13 18:44:00,84.6,62.8,29.92,East,93,5.0,7.0,48,0.00,,,0.00,287.00,VWS V14.01,2013-07-13 23:44:00,
2013-07-13 18:49:00,84.4,62.6,29.92,ESE,105,3.0,8.0,48,0.00,,,0.00,278.00,VWS V14.01,2013-07-13 23:49:00,
2013-07-13 18:54:00,84.4,62.0,29.92,NE,54,3.0,7.0,47,0.00,,,0.00,262.00,VWS V14.01,2013-07-13 23:54:00,
2013-07-13 18:59:00,84.5,62.7,29.92,East,90,6.0,7.0,48,0.00,,,0.00,234.00,VWS V14.01,2013-07-13 23:59:00,
2013-07-13 19:04:00,84.4,62.6,29.93,East,92,3.0,6.0,48,0.00,,,0.00,200.00,VWS V14.01,2013-07-14 00:04:00,
2013-07-13 19:09:00,84.0,62.8,29.93,ESE,121,3.0,7.0,49,0.00,,,0.00,183.00,VWS V14.01,2013-07-14 00:09:00,
2013-07-13 19:14:00,83.7,63.1,29.93,ESE,113,2.0,7.0,50,0.00,,,0.00,162.00,VWS V14.01,2013-07-14 00:14:00,
2013-07-13 19:19:00,83.7,63.1,29.93,ESE,119,3.0,7.0,50,0.00,,,0.00,144.00,VWS V14.01,2013-07-14 00:19:00,
2013-07-13 19:24:00,83.3,63.9,29.93,East,96,6.0,10.0,52,0.00,,,0.00,76.00,VWS V14.01,2013-07-14 00:24:00,
2013-07-13 19:29:00,82.4,64.1,29.93,ESE,113,7.0,11.0,54,0.00,,,0.00,102.00,VWS V14.01,2013-07-14 00:29:00,
2013-07-13 19:34:00,81.9,64.2,29.94,ESE,102,5.0,8.0,55,0.00,,,0.00,65.00,VWS V14.01,2013-07-14 00:34:00,
2013-07-13 19:39:00,81.6,63.9,29.94,East,84,5.0,9.0,55,0.00,,,0.00,53.00,VWS V14.01,2013-07-14 00:39:00,
2013-07-13 19:44:00,81.3,63.6,29.94,ENE,71,4.0,7.0,55,0.00,,,0.00,42.00,VWS V14.01,2013-07-14 00:44:00,
2013-07-13 19:49:00,81.1,63.9,29.94,ESE,122,4.0,9.0,56,0.00,,,0.00,35.00,VWS V14.01,2013-07-14 00:49:00,
2013-07-13 19:54:00,80.9,63.8,29.94,East,95,5.0,6.0,56,0.00,,,0.00,30.00,VWS V14.01,2013-07-14 00:54:00,
2013-07-13 19:59:00,80.7,63.6,29.94,ESE,115,1.0,6.0,56,0.00,,,0.00,21.00,VWS V14.01,2013-07-14 00:59:00,
2013-07-13 20:04:00,80.5,63.4,29.94,ESE,109,2.0,6.0,56,0.00,,,0.00,12.00,VWS V14.01,2013-07-14 01:04:00,
2013-07-13 20:09:00,80.3,63.7,29.94,East,98,2.0,6.0,57,0.00,,,0.00,7.00,VWS V14.01,2013-07-14 01:09:00,
2013-07-13 20:14:00,80.0,63.4,29.94,ESE,102,2.0,6.0,57,0.00,,,0.00,0.00,VWS V14.01,2013-07-14 01:14:00,
2013-07-13 20:19:00,79.8,63.2,29.94,East,93,3.0,6.0,57,0.00,,,0.00,0.00,VWS V14.01,2013-07-14 01:19:00,
2013-07-13 20:24:00,79.5,63.0,29.94,ESE,111,4.0,5.0,57,0.00,,,0.00,0.00,VWS V14.01,2013-07-14 01:24:00,
2013-07-13 20:29:00,79.4,62.9,29.94,ESE,104,3.0,6.0,57,0.00,,,0.00,0.00,VWS V14.01,2013-07-14 01:29:00,
2013-07-13 20:34:00,79.2,62.7,29.94,East,95,3.0,6.0,57,0.00,,,0.00,0.00,VWS V14.01,2013-07-14 01:34:00,
2013-07-13 20:39:00,79.1,63.1,29.94,East,97,2.0,6.0,58,0.00,,,0.00,0.00,VWS V14.01,2013-07-14 01:39:00,
2013-07-13 20:44:00,78.9,62.9,29.94,East,96,1.0,3.0,58,0.00,,,0.00,0.00,VWS V14.01,2013-07-14 01:44:00,
2013-07-13 20:49:00,78.7,63.2,29.94,East,97,0.0,3.0,59,0.00,,,0.00,0.00,VWS V14.01,2013-07-14 01:49:00,
2013-07-13 20:54:00,78.4,62.9,29.94,East,100,2.0,3.0,59,0.00,,,0.00,0.00,VWS V14.01,2013-07-14 01:54:00,
2013-07-13 20:59:00,78.2,63.2,29.94,ESE,102,2.0,3.0,60,0.00,,,0.00,0.00,VWS V14.01,2013-07-14 01:59:00,
2013-07-13 21:04:00,78.0,63.0,29.94,ESE,102,1.0,2.0,60,0.00,,,0.00,0.00,VWS V14.01,2013-07-14 02:04:00,
2013-07-13 21:09:00,77.8,62.8,29.94,ESE,102,2.0,3.0,60,0.00,,,0.00,0.00,VWS V14.01,2013-07-14 02:09:00,
2013-07-13 21:14:00,77.7,63.2,29.94,ESE,102,0.0,1.0,61,0.00,,,0.00,0.00,VWS V14.01,2013-07-14 02:14:00,
2013-07-13 21:19:00,77.5,63.0,29.95,ESE,102,1.0,2.0,61,0.00,,,0.00,0.00,VWS V14.01,2013-07-14 02:19:00,
2013-07-13 21:24:00,77.2,63.2,29.95,ESE,102,0.0,1.0,62,0.00,,,0.00,0.00,VWS V14.01,2013-07-14 02:24:00,
2013-07-13 21:29:00,77.0,63.0,29.95,ESE,102,0.0,1.0,62,0.00,,,0.00,0.00,VWS V14.01,2013-07-14 02:29:00,
2013-07-13 21:34:00,76.8,63.3,29.95,ESE,102,0.0,0.0,63,0.00,,,0.00,0.00,VWS V14.01,2013-07-14 02:34:00,
2013-07-13 21:39:00,76.6,63.1,29.95,ESE,102,0.0,0.0,63,0.00,,,0.00,0.00,VWS V14.01,2013-07-14 02:39:00,
2013-07-13 21:44:00,76.4,63.3,29.95,ESE,102,0.0,0.0,64,0.00,,,0.00,0.00,VWS V14.01,2013-07-14 02:44:00,
2013-07-13 21:49:00,76.2,63.1,29.95,ESE,102,0.0,0.0,64,0.00,,,0.00,0.00,VWS V14.01,2013-07-14 02:49:00,
2013-07-13 21:54:00,76.0,63.4,29.95,ESE,102,0.0,0.0,65,0.00,,,0.00,0.00,VWS V14.01,2013-07-14 02:54:00,
2013-07-13 21:59:00,75.9,63.3,29.95,ESE,102,0.0,0.0,65,0.00,,,0.00,0.00,VWS V14.01,2013-07-14 02:59:00,
2013-07-13 22:04:00,75.9,63.3,29.95,ESE,102,0.0,0.0,65,0.00,,,0.00,0.00,VWS V14.01,2013-07-14 03:04:00,
2013-07-13 22:09:00,75.7,63.5,29.95,ESE,102,0.0,3.0,66,0.00,,,0.00,0.00,VWS V14.01,2013-07-14 03:09:00,
2013-07-13 22:14:00,75.5,63.4,29.95,East,101,0.0,1.0,66,0.00,,,0.00,0.00,VWS V14.01,2013-07-14 03:14:00,
2013-07-13 22:19:00,75.3,63.6,29.95,East,101,0.0,1.0,67,0.00,,,0.00,0.00,VWS V14.01,2013-07-14 03:19:00,
2013-07-13 22:24:00,75.1,63.8,29.95,East,101,0.0,0.0,68,0.00,,,0.00,0.00,VWS V14.01,2013-07-14 03:24:00,
2013-07-13 22:29:00,74.8,63.5,29.95,East,101,0.0,0.0,68,0.00,,,0.00,0.00,VWS V14.01,2013-07-14 03:29:00,
2013-07-13 22:34:00,74.6,63.8,29.96,East,101,0.0,0.0,69,0.00,,,0.00,0.00,VWS V14.01,2013-07-14 03:34:00,
2013-07-13 22:39:00,74.4,63.6,29.95,East,101,0.0,0.0,69,0.00,,,0.00,0.00,VWS V14.01,2013-07-14 03:39:00,
2013-07-13 22:45:00,74.3,63.5,29.95,East,101,2.0,2.0,69,0.00,,,0.00,0.00,VWS V14.01,2013-07-14 03:45:00,
2013-07-13 22:50:00,74.3,63.5,29.95,East,101,0.0,2.0,69,0.00,,,0.00,0.00,VWS V14.01,2013-07-14 03:50:00,
2013-07-13 22:55:00,74.2,63.4,29.95,East,101,0.0,0.0,69,0.00,,,0.00,0.00,VWS V14.01,2013-07-14 03:55:00,
2013-07-13 23:00:00,74.1,63.3,29.96,East,101,0.0,0.0,69,0.00,,,0.00,0.00,VWS V14.01,2013-07-14 04:00:00,
2013-07-13 23:01:00,74.0,63.2,29.96,East,101,0.0,0.0,69,0.00,,,0.00,0.00,VWS V14.01,2013-07-14 04:01:00,
2013-07-13 23:06:00,73.9,63.5,29.96,East,101,0.0,1.0,70,0.00,,,0.00,0.00,VWS V14.01,2013-07-14 04:06:00,
2013-07-13 23:11:00,73.8,63.4,29.96,East,101,0.0,0.0,70,0.00,,,0.00,0.00,VWS V14.01,2013-07-14 04:11:00,
2013-07-13 23:16:00,73.7,63.3,29.96,East,101,0.0,0.0,70,0.00,,,0.00,0.00,VWS V14.01,2013-07-14 04:16:00,
2013-07-13 23:21:00,73.7,63.3,29.95,East,101,0.0,0.0,70,0.00,,,0.00,0.00,VWS V14.01,2013-07-14 04:21:00,
2013-07-13 23:26:00,73.5,63.5,29.95,East,101,0.0,0.0,71,0.00,,,0.00,0.00,VWS V14.01,2013-07-14 04:26:00,
2013-07-13 23:31:00,73.4,63.4,29.96,East,101,0.0,0.0,71,0.00,,,0.00,0.00,VWS V14.01,2013-07-14 04:31:00,
2013-07-13 23:36:00,73.3,63.3,29.96,East,101,0.0,0.0,71,0.00,,,0.00,0.00,VWS V14.01,2013-07-14 04:36:00,
2013-07-13 23:41:00,73.2,63.2,29.96,East,101,0.0,0.0,71,0.00,,,0.00,0.00,VWS V14.01,2013-07-14 04:41:00,
2013-07-13 23:46:00,73.1,63.2,29.96,East,101,0.0,0.0,71,0.00,,,0.00,0.00,VWS V14.01,2013-07-14 04:46:00,
2013-07-13 23:51:00,73.1,63.2,29.95,East,101,0.0,1.0,71,0.00,,,0.00,0.00,VWS V14.01,2013-07-14 04:51:00,
2013-07-13 23:56:00,73.1,63.2,29.95,East,101,0.0,1.0,71,0.00,,,0.00,0.00,VWS V14.01,2013-07-14 04:56:00,